Location: Paris
(48.6709°N, 2.3750°E)
Time: 10:25:59
(UTC+02:00)

LO-87 - Pass Details

Date: 30 June 2022
Orbit: 450 x 466 km, 97.4° (Epoch: 17 August)

Event Time Altitude Azimuth Distance (km) Brightness Sun altitude
Exits shadow 00:54:16 32° 120° (ESE) 812 ? -16.9°
Maximum altitude 00:55:22 44° 72° (ENE) 647 ? -17.0°
Drops below altitude 10° 00:58:42 10° 359° (N) 1,625 ? -17.1°
Sets 01:00:49 0° 353° (N) 2,510 ? -17.2°
